DW7589 Weather Reports


Display with metric or nautical units.
time (UTC)temp
F
wind
direction
speed
MPH
gust
MPH
rain 1hr
in
rain 24hr
in
rain mn
in
humidity
%
barometer
mb
20180221052508 42 333 7.0 15.0 0.00 0.28 0.28 94 1019.4
20180221052008 42 329 7.0 15.0 0.00 0.28 0.28 94 1019.9
20180221051007 42 334 8.0 18.0 0.00 0.28 0.28 94 1019.6
20180221050508 42 335 9.0 18.0 0.00 0.28 0.28 94 1019.8
20180221045008 42 337 6.0 13.0 0.00 0.28 0.28 94 1019.6
20180221044508 42 336 6.0 14.0 0.00 0.28 0.28 94 1019.6
20180221044008 42 336 6.0 14.0 0.00 0.28 0.28 94 1019.5
20180221042007 43 335 6.0 15.0 0.00 0.28 0.28 94 1019.1
20180221041507 43 336 8.0 18.0 0.00 0.28 0.28 94 1019.1
20180221041008 43 337 8.0 18.0 0.00 0.28 0.28 93 1019.0
20180221040007 43 337 8.0 16.0 0.01 0.28 0.28 93 1018.8
20180221035508 43 339 7.0 16.0 0.02 0.28 0.28 93 1018.8
20180221035008 43 343 7.0 13.0 0.02 0.28 0.28 93 1018.7
20180221034509 43 347 6.0 15.0 0.02 0.28 0.28 93 1018.5
20180221033507 44 350 8.0 14.0 0.02 0.28 0.28 93 1018.2
20180221033008 44 349 8.0 15.0 0.02 0.28 0.28 93 1018.2
20180221032007 44 348 7.0 17.0 0.02 0.28 0.28 92 1018.2
20180221031508 44 346 8.0 19.0 0.02 0.28 0.28 92 1017.8
20180221031008 45 341 8.0 19.0 0.02 0.28 0.28 92 1017.8
20180221030008 45 342 10.0 20.0 0.01 0.27 0.27 91 1017.7
20180221025508 46 338 9.0 18.0 0.00 0.26 0.26 91 1017.3
20180221023008 48 334 9.0 18.0 0.00 0.26 0.26 91 1017.2
20180221021507 50 344 7.0 13.0 0.00 0.26 0.26 91 1016.5
20180221020008 51 346 7.0 15.0 0.00 0.26 0.26 91 1015.8
20180221015510 51 344 7.0 15.0 0.00 0.26 0.26 91 1015.9
20180221015008 52 341 6.0 15.0 0.00 0.26 0.26 90 1015.8
20180221014508 52 340 7.0 14.0 0.00 0.26 0.26 89 1015.6
20180221014007 54 346 7.0 14.0 0.00 0.27 0.26 87 1015.6
20180221013507 56 347 7.0 15.0 0.00 0.27 0.26 85 1015.4
20180221013008 60 348 6.0 15.0 0.00 0.27 0.26 79 1015.4
20180221012508 67 343 3.0 14.0 0.00 0.27 0.26 74 1015.1
20180221011007 71 203 2.0 4.0 0.00 0.27 0.26 89 1014.5
20180221010507 71 212 3.0 5.0 0.00 0.27 0.26 89 1014.4
20180221005507 71 195 4.0 7.0 0.00 0.27 0.26 89 1014.1
20180221005008 71 188 4.0 7.0 0.00 0.27 0.26 89 1014.0
20180221004507 71 178 4.0 7.0 0.00 0.27 0.26 89 1013.8
20180221003508 71 172 7.0 11.0 0.00 0.27 0.26 88 1013.1
20180221003008 71 172 7.0 11.0 0.00 0.27 0.26 89 1013.1
20180221002508 71 169 6.0 10.0 0.00 0.27 0.26 89 1013.0
20180221002007 71 165 5.0 8.0 0.00 0.27 0.26 89 1012.9
20180221001508 71 166 5.0 10.0 0.00 0.27 0.26 88 1012.9
20180221001008 72 171 6.0 10.0 0.00 0.27 0.26 88 1013.0
20180221000507 72 171 7.0 11.0 0.00 0.27 0.26 88 1013.1
20180220235508 71 171 7.0 12.0 0.00 0.27 0.26 88 1013.0
20180220235008 71 171 7.0 11.0 0.00 0.27 0.26 89 1013.0
20180220233508 71 172 8.0 12.0 0.00 0.27 0.26 89 1012.9
20180220232507 71 168 9.0 14.0 0.00 0.27 0.26 90 1012.5
20180220232007 71 165 8.0 14.0 0.00 0.27 0.26 90 1012.3
20180220231508 71 166 8.0 13.0 0.00 0.27 0.26 90 1012.2
20180220230007 71 172 7.0 12.0 0.00 0.27 0.26 91 1012.1
20180220225508 71 172 8.0 12.0 0.00 0.27 0.26 91 1012.1
20180220224007 71 170 8.0 15.0 0.01 0.27 0.26 91 1012.0
20180220223508 71 170 8.0 13.0 0.01 0.27 0.26 91 1012.0
20180220223007 71 171 8.0 13.0 0.01 0.27 0.26 91 1011.9
20180220222507 71 173 8.0 13.0 0.01 0.27 0.26 91 1012.1
20180220221508 70 171 8.0 12.0 0.01 0.27 0.26 91 1012.0
20180220220507 70 173 8.0 12.0 0.01 0.28 0.26 91 1011.9
20180220220007 70 172 8.0 12.0 0.01 0.28 0.26 91 1012.0
20180220215507 70 171 7.0 10.0 0.01 0.28 0.26 92 1012.0
20180220215008 70 170 7.0 10.0 0.01 0.28 0.26 92 1012.0
20180220214507 70 169 8.0 12.0 0.01 0.28 0.26 91 1012.0
20180220214007 70 171 7.0 14.0 0.00 0.27 0.25 92 1012.0
20180220213507 70 173 7.0 14.0 0.00 0.27 0.25 92 1012.1
20180220213008 70 172 7.0 12.0 0.00 0.27 0.25 92 1012.1
20180220212507 70 173 7.0 12.0 0.00 0.27 0.25 92 1011.9
20180220210007 68 181 4.0 10.0 0.01 0.27 0.25 94 1012.0
20180220205507 68 192 3.0 5.0 0.01 0.27 0.25 94 1012.0
20180220203507 68 202 3.0 4.0 0.02 0.27 0.25 94 1011.9
20180220203007 68 184 3.0 6.0 0.02 0.27 0.25 94 1011.8
20180220200507 68 175 5.0 9.0 0.04 0.27 0.25 94 1011.8
20180220195507 68 177 2.0 6.0 0.06 0.26 0.24 94 1012.0
20180220195009 68 191 2.0 4.0 0.07 0.25 0.23 94 1012.3
20180220194507 68 193 2.0 6.0 0.09 0.25 0.23 94 1012.3
20180220193508 68 187 3.0 6.0 0.12 0.25 0.23 94 1012.8
20180220192007 68 162 2.0 5.0 0.14 0.24 0.22 94 1012.5
20180220191007 68 199 2.0 4.0 0.14 0.24 0.22 93 1012.6
20180220190507 68 228 2.0 4.0 0.14 0.23 0.21 93 1012.8
20180220185007 69 200 6.0 11.0 0.10 0.18 0.16 92 1013.6
20180220184508 69 186 7.0 11.0 0.08 0.16 0.14 92 1013.6
20180220183007 69 173 6.0 10.0 0.03 0.11 0.09 90 1013.6
20180220182008 70 171 7.0 10.0 0.02 0.10 0.08 89 1013.6
20180220181507 70 172 7.0 13.0 0.02 0.10 0.08 88 1013.6
20180220180507 70 171 9.0 13.0 0.01 0.09 0.07 86 1013.8
20180220180008 71 171 8.0 13.0 0.00 0.08 0.06 86 1013.8
20180220175507 71 171 8.0 12.0 0.02 0.08 0.06 86 1014.0
20180220175007 71 172 7.0 12.0 0.02 0.08 0.06 86 1014.0
20180220173007 70 174 7.0 11.0 0.04 0.08 0.06 87 1014.2
20180220172507 70 173 7.0 13.0 0.04 0.08 0.06 88 1014.2
20180220172007 70 170 7.0 13.0 0.04 0.08 0.06 87 1014.3
20180220171507 70 171 8.0 12.0 0.04 0.08 0.06 87 1014.2
20180220170507 70 172 11.0 16.0 0.04 0.08 0.06 86 1014.2
20180220165507 70 174 10.0 18.0 0.02 0.06 0.04 86 1014.2
20180220163507 70 170 8.0 12.0 0.00 0.04 0.02 84 1013.8
20180220163007 70 168 8.0 16.0 0.00 0.04 0.02 85 1013.7
20180220162507 70 167 8.0 16.0 0.00 0.04 0.02 85 1013.8
20180220162007 70 167 9.0 18.0 0.00 0.04 0.02 85 1013.6
20180220161007 70 164 10.0 17.0 0.00 0.04 0.02 85 1013.6
20180220160508 70 165 10.0 16.0 0.00 0.04 0.02 84 1013.4
20180220160007 70 166 9.0 19.0 0.00 0.04 0.02 84 1013.4
20180220155007 70 163 11.0 19.0 0.00 0.04 0.02 84 1013.4
20180220153508 70 163 11.0 19.0 0.00 0.04 0.02 84 1013.3
20180220152507 70 157 11.0 19.0 0.00 0.04 0.02 85 1013.0
20180220152007 70 160 11.0 19.0 0.00 0.04 0.02 85 1012.9
20180220150507 70 156 11.0 19.0 0.00 0.04 0.02 85 1012.7
20180220150007 70 159 12.0 21.0 0.00 0.04 0.02 85 1012.6
20180220145507 69 162 11.0 21.0 0.00 0.04 0.02 86 1012.7
20180220144507 69 154 12.0 22.0 0.00 0.04 0.02 87 1012.7
20180220144007 69 154 12.0 20.0 0.00 0.04 0.02 87 1012.7
20180220143007 68 154 12.0 22.0 0.00 0.04 0.02 87 1012.5
20180220142007 68 151 12.0 19.0 0.00 0.04 0.02 87 1012.3
20180220140507 68 152 11.0 21.0 0.00 0.04 0.02 87 1012.5
20180220140006 68 152 11.0 21.0 0.00 0.04 0.02 87 1012.4
20180220135507 68 155 10.0 19.0 0.00 0.04 0.02 87 1012.6
20180220135007 68 156 9.0 19.0 0.00 0.04 0.02 87 1012.7
20180220134007 68 161 9.0 16.0 0.00 0.04 0.02 87 1012.8
20180220131508 68 157 10.0 16.0 0.00 0.04 0.02 87 1013.0
20180220130507 68 159 9.0 14.0 0.00 0.04 0.02 87 1012.9
20180220130007 68 159 8.0 14.0 0.00 0.04 0.02 87 1012.9
20180220125507 68 161 8.0 14.0 0.00 0.04 0.02 87 1013.0
20180220124507 68 163 8.0 15.0 0.00 0.04 0.02 87 1013.0
20180220124007 68 162 8.0 15.0 0.00 0.04 0.02 87 1013.0
20180220123506 68 161 8.0 15.0 0.00 0.04 0.02 87 1013.0
20180220122507 68 162 8.0 14.0 0.00 0.04 0.02 87 1013.0
20180220121507 68 154 7.0 12.0 0.00 0.04 0.02 87 1013.0
20180220120508 68 158 7.0 11.0 0.00 0.04 0.02 86 1013.0
20180220120007 68 161 8.0 13.0 0.00 0.04 0.02 86 1012.9
20180220115507 69 162 8.0 13.0 0.00 0.04 0.02 86 1013.0
20180220115006 69 164 8.0 13.0 0.00 0.04 0.02 87 1013.1
20180220112007 69 161 6.0 9.0 0.02 0.04 0.02 88 1013.0
20180220110507 69 167 6.0 10.0 0.02 0.04 0.02 88 1013.0
20180220110006 69 168 7.0 10.0 0.02 0.04 0.02 88 1012.8
20180220105507 69 171 7.0 11.0 0.02 0.04 0.02 89 1012.9
20180220104506 69 171 6.0 10.0 0.02 0.04 0.02 90 1012.9
20180220102507 70 169 8.0 12.0 0.01 0.03 0.01 87 1012.8
20180220102007 71 167 8.0 12.0 0.00 0.02 0.00 85 1012.8
20180220101507 71 170 7.0 12.0 0.00 0.02 0.00 84 1012.9
20180220095007 71 188 7.0 12.0 0.00 0.02 0.00 83 1012.9
20180220094006 71 184 6.0 10.0 0.00 0.02 0.00 83 1012.9
20180220093506 71 188 7.0 10.0 0.00 0.02 0.00 83 1012.8
20180220092507 72 173 10.0 15.0 0.00 0.02 0.00 82 1012.3
20180220091007 72 171 11.0 21.0 0.00 0.02 0.00 82 1011.7
20180220085507 72 165 10.0 19.0 0.00 0.03 0.00 83 1011.4
20180220085007 72 163 9.0 16.0 0.00 0.03 0.00 83 1011.5
20180220084507 71 164 9.0 16.0 0.00 0.03 0.00 84 1011.5
20180220084006 71 162 8.0 16.0 0.00 0.05 0.00 84 1011.4
20180220083006 71 160 8.0 13.0 0.00 0.05 0.00 84 1011.4
20180220082507 71 160 8.0 18.0 0.00 0.05 0.00 84 1011.3
20180220081506 71 162 8.0 15.0 0.00 0.05 0.00 84 1011.5
20180220080506 71 163 8.0 14.0 0.00 0.05 0.00 84 1011.6
20180220080007 71 161 8.0 14.0 0.00 0.05 0.00 84 1011.7
20180220074506 71 158 7.0 13.0 0.00 0.05 0.00 84 1011.4
20180220074007 71 164 8.0 12.0 0.00 0.05 0.00 84 1011.6
20180220072506 71 167 9.0 15.0 0.00 0.05 0.00 84 1011.9
20180220071507 71 169 9.0 18.0 0.00 0.05 0.00 85 1011.8
20180220071007 71 164 9.0 18.0 0.00 0.05 0.00 85 1011.6
20180220070506 71 160 9.0 15.0 0.00 0.05 0.00 85 1011.5
20180220070006 71 159 9.0 15.0 0.00 0.05 0.00 85 1011.4
20180220065507 71 159 9.0 18.0 0.00 0.05 0.00 85 1011.3
20180220065006 71 162 8.0 18.0 0.00 0.05 0.00 85 1011.3
20180220064506 71 164 8.0 13.0 0.00 0.05 0.00 85 1011.3
20180220064006 71 164 9.0 16.0 0.00 0.05 0.00 86 1011.4
20180220063011 71 163 8.0 13.0 0.00 0.05 0.00 86 1011.4
20180220061006 71 166 7.0 13.0 0.00 0.05 0.00 86 1011.6
20180220060007 71 170 7.0 13.0 0.00 0.05 0.00 86 1011.6
20180220055506 71 164 7.0 11.0 0.00 0.05 0.05 86 1011.5
20180220055009 71 162 7.0 11.0 0.00 0.05 0.05 86 1011.5
20180220054007 71 157 8.0 14.0 0.00 0.05 0.05 86 1011.5